Regional Weather Roundup
Issued by NWS

Home | Current Version | Previous Version | Text Only | Print | Product List | Glossary Off
Versions: 1 2 3 4 5 6 7 8 9 10 11 12 13 14 15 16 17 18 19 20 21 22 23 24 25 26 27 28 29 30 31 32 33 34 35 36 37 38 39 40 41 42 43 44 45 46 47 48 49 50

000
ASUS43 KMKX 262300
RWRWI

WISCONSIN REGIONAL WEATHER ROUNDUP
NATIONAL WEATHER SERVICE MILWAUKEE/SULLIVAN WI
500 PM CST SUN FEB 26 2017

NOTE: "FAIR" INDICATES FEW OR NO CLOUDS BELOW 12,000 FEET WITH NO
SIGNIFICANT WEATHER AND/OR OBSTRUCTIONS TO VISIBILITY.

WIZ001-002-006>008-014>016-023>028-270000-
NORTHWEST WISCONSIN

CITY           SKY/WX    TMP DP  RH WIND       PRES   REMARKS
SUPERIOR ARPT  CLEAR     25   6  44 NW8G16    29.86R WCI  16
ASHLAND        CLEAR     25   5  42 W12       29.85R WCI  14
HAYWARD        CLEAR     28   7  41 NW9       29.83R WCI  19
SIREN          PTCLDY    30   8  39 W7        29.85R WCI  23
CUMBERLAND     CLEAR     30   7  37 NW14      29.82R WCI  20
RICE LAKE      CLEAR     32  12  43 W12G20    29.83R WCI  23
CHETEK         PTCLDY    33  18  55 NW9G16    29.82R WCI  25
LADYSMITH      PTCLDY    32  20  60 W12       29.81R WCI  23
EAU CLAIRE     NOT AVBL
MENOMONIE      MOCLDY    37  17  44 W14       29.83R WCI  28
NEW RICHMOND   CLEAR     33  12  42 NW14G20   29.84R WCI  24
OSCEOLA        CLEAR     33  13  43 NW10G16   29.88R WCI  25
$$

WIZ003>005-009-010-017-018-270000-
NORTH CENTRAL WISCONSIN

CITY           SKY/WX    TMP DP  RH WIND       PRES   REMARKS
MANITOWISH WTR PTCLDY    24  16  72 NW12G17   29.75R WCI  12
ARBOR VITAE    PTCLDY    29  20  69 NW14        N/A  WCI  19
WOODRUFF       PTCLDY    29  20  69 NW14        N/A  WCI  19
RHINELANDER    FLURRIES  30  23  75 W13       29.75R WCI  20
EAGLE RIVER    MOCLDY    27  18  67 W12       29.73R WCI  17
LAND O LAKES   FLURRIES  25  19  76 NW9       29.75R WCI  16
PHILLIPS       MOCLDY    28  18  64 W9        29.76R WCI  20
TOMAHAWK       FLURRIES  30  22  74 W7        29.76R WCI  23
MEDFORD        FLURRIES  31  21  66 SW13      29.77R WCI  21
MERRILL        NOT AVBL
$$

WIZ029-030-035-036-043>047-270000-
CENTRAL WISCONSIN

CITY           SKY/WX    TMP DP  RH WIND       PRES   REMARKS
WAUSAU         CLEAR     33  20  58 W13G21    29.78R WCI  24
MOSINEE        NOT AVBL
MARSHFIELD     CLEAR     32  18  56 W9        29.80R WCI  24
STEVENS POINT  CLOUDY    34  18  50 W10G18    29.81R WCI  26
WAUPACA        MOCLDY    40  22  48 SW15G22   29.81R WCI  32
WAUTOMA        CLOUDY    38  24  57 SW17G24   29.84R WCI  28
WISC RAPIDS    PTCLDY    37  21  52 W14G22    29.83R WCI  28
CAMP DOUGLAS   NOT AVBL
$$

WIZ011>013-019>022-031-037>040-048>050-270000-
NORTHEAST WISCONSIN

CITY           SKY/WX    TMP DP  RH WIND       PRES   REMARKS
ANTIGO         CLOUDY    31  20  64 W13G20    29.76R WCI  21
SHAWANO        MOCLDY    39  19  44 W13G18    29.79R WCI  32
OCONTO         CLOUDY    38  21  50 W14G28    29.78R WCI  29
STURGEON BAY   PTCLDY    37  22  54 W12G21    29.80R WCI  29
GREEN BAY      CLOUDY    39  23  52 W13       29.81R WCI  31
MANITOWOC      NOT AVBL
APPLETON       MOCLDY    37  19  48 SW13G18   29.79R WCI  29
CLINTONVILLE   MOCLDY    36  19  51 W13       29.80R WCI  27
OSHKOSH        CLEAR     38  23  55 SW9       29.83R WCI  31
$$

WIZ032>034-041-042-053>061-270000-
SOUTHWEST WISCONSIN

CITY           SKY/WX    TMP DP  RH WIND       PRES   REMARKS
LA CROSSE      CLEAR     39  22  50 W14       29.89R WCI  31
SPARTA         PTCLDY    38  23  53 W15       29.86R WCI  30
VIROQUA        PTCLDY    36  25  64 W14G22    29.87R WCI  27
BOSCOBEL       CLEAR     42  22  44 W8        29.90R
PRAIRIE DU CHI CLEAR     41  24  50 W9G17     29.90R
PLATTEVILLE    CLEAR     42  26  52 W17G25    29.90R
$$

WIZ056-057-062-063-064-067-068-270000-
SOUTH CENTRAL WISCONSIN

CITY           SKY/WX    TMP DP  RH WIND       PRES   REMARKS
REEDSBURG      CLEAR     38  24  56 W10       29.87R WCI  31
BARABOO/DELLS  PTCLDY    39  22  51 W10       29.85R WCI  32
LONE ROCK      NOT AVBL
MINERAL POINT  MOCLDY    41  28  60 W13       29.89R
MADISON        PTCLDY    40  25  55 SW8       29.88R WCI  34
MIDDLETON      CLEAR     43  28  54 W13G20    29.88R
WATERTOWN      MOCLDY    42  25  52 W16G23    29.87R
MONROE         CLEAR     43  23  45 SW23      29.88S
JANESVILLE     PTCLDY    46  19  34 W17G31    29.89R
$$

WIZ051-052-058>065-066-070>072-270000-
SOUTHEAST WISCONSIN

CITY           SKY/WX    TMP DP  RH WIND       PRES   REMARKS
MILWAUKEE      PTCLDY    45  22  40 W14G24    29.90R
WAUKESHA       PTCLDY    39  21  48 W17G25    29.89R WCI  30
MILWAUKEE/TIMM PTCLDY    43  19  39 W20G28    29.89R
RACINE         CLEAR     44  22  41 SW12G22   29.92R
KENOSHA        CLEAR     43  23  45 W18G28    29.91R
FOND DU LAC    CLEAR     38  26  62 SW10      29.85R WCI  31
SHEBOYGAN      CLEAR     38  25  59 SW15      29.85R WCI  29
WEST BEND      PTCLDY    41  25  52 W12G21    29.86R
JUNEAU         CLEAR     38  27  64 SW15      29.88R WCI  29
$$

LSZ147-162-270000-
LAKE SUPERIOR

STATION/POSITION TIME  TEMP    WIND        PRES    WAVE
                       AIR SEA DIR/SP/G            HT/PER
                 (UTC) (F)     (DEG/KT/KT) (MB)    (FT/S)
DEVILS ISLAND    2200   24     270/ 18/ 21 1010.2R
PORT WING        2240   25     270/ 14/ 21 1011.2R
SAXON HARBOR     2230   27     300/ 13/ 18 1010.2R
$$

LMZ867-665-643>646-270000-
LAKE MICHIGAN

STATION/POSITION TIME  TEMP    WIND        PRES    WAVE
                       AIR SEA DIR/SP/G            HT/PER
                 (UTC) (F)     (DEG/KT/KT) (MB)    (FT/S)
CHAMBERS ISLAND  2240   36     210/  7/ 17 1007.8R
NORTHPORT PIER   2240   35     220/  6/ 12 1007.8R
SISTER BAY       2205   37     260/ 17/ 20   N/A
ALGOMA LAKESHORE 2126          250/ 20/ 26   N/A
KEWAUNEE LAKESHO 2230   38     220/  9/ 15 1008.8R
SHEBOYGAN LAKESH 2200   40     240/ 16/ 19 1010.9R
PORT WASHINGTON  2240   44     250/  9/ 16 1012.5R
MILWAUKEE LAKESH 2230   44     250/ 12/ 14   N/A
KENOSHA   LAKESH 2200   45     250/ 16/ 29 1012.5
$$

TC  - TEMPERATURE IN CELSIUS
VSB - VISIBILITY IN STATUTE MILES
WCI - WIND CHILL INDEX
HX  - HEAT INDEX





USA.gov is the U.S. government's official web portal to all federal, state and local government web resources and services.